GEFSMW_850_meantemp_006.txt.gz
Temperature
14 15 16 17 18 18 18 18 18 17 17 18 18 19 19 19 19 19 19 18 18 17 17 16 16 16 16 16 16 16 16 15 15 15 15 15 16 16 16 16 17 17 17
15 15 16 17 17 18 18 17 17 17 18 18 19 19 19 19 19 19 18 18 18 17 17 16 16 16 16 16 16 16 16 16 15 15 14 15 15 16 16 16 16 17 17
15 16 17 18 18 17 17 17 17 18 18 19 19 19 19 19 19 19 19 18 18 17 17 17 17 17 17 17 17 16 16 16 15 15 14 14 14 14 16 16 16 17 17
15 16 17 17 18 17 17 18 18 18 19 19 19 19 19 19 19 19 19 19 19 18 18 18 17 17 18 18 17 17 16 16 15 15 14 14 14 14 14 16 16 16 16
15 15 15 16 16 17 17 17 17 17 18 18 18 19 19 19 19 19 19 19 19 18 18 18 18 17 17 17 17 17 16 16 15 14 14 14 14 14 14 14 16 16 16
16 16 15 16 16 16 16 16 16 16 16 17 17 17 17 18 18 18 18 18 18 18 18 17 17 17 17 17 17 17 17 16 15 14 14 14 14 14 14 13 14 15 16
16 16 16 16 16 16 16 16 16 16 16 16 16 16 16 16 16 17 17 17 17 17 17 17 17 17 17 17 17 17 17 16 15 14 14 14 13 13 13 13 14 14 15
16 16 16 16 15 15 15 15 15 15 15 15 15 15 15 15 14 14 14 15 15 16 16 16 16 16 15 16 16 16 16 16 15 14 14 13 13 13 13 13 13 13 14
16 16 16 15 15 15 14 14 14 15 15 15 14 14 14 14 14 14 14 14 13 14 14 14 14 14 14 15 15 15 16 15 15 14 13 13 13 13 13 13 13 13 13
16 16 16 16 15 15 14 14 13 13 14 14 14 14 13 13 13 13 13 13 13 13 13 13 13 13 13 14 14 15 15 14 14 14 13 13 13 13 13 14 14 13 13
16 16 16 16 15 15 14 14 13 13 13 14 14 14 14 13 13 12 12 12 12 13 13 13 13 13 13 13 13 14 14 14 14 14 13 13 13 13 13 14 14 14 14
16 16 15 15 14 14 14 14 14 13 13 13 13 13 13 13 12 12 12 12 12 12 12 12 12 12 13 12 12 13 13 13 13 13 13 13 13 13 13 14 14 14 14
15 14 14 14 14 14 14 14 13 13 13 13 13 13 13 12 12 12 12 12 12 12 11 11 11 11 11 11 12 12 12 13 13 13 13 13 13 13 13 14 14 14 14
14 14 14 14 13 13 13 13 13 13 13 13 13 13 12 12 12 12 12 12 11 11 11 11 11 11 10 10 11 11 12 12 12 13 13 13 13 13 13 14 14 14 14
14 14 14 13 13 13 13 12 12 12 12 12 12 12 12 12 12 12 11 11 11 11 11 11 11 11 11 10 11 11 11 11 12 12 13 13 13 13 13 13 14 14 14
14 13 13 13 13 13 13 12 12 12 12 11 12 12 12 12 12 11 11 11 11 11 11 10 11 11 10 11 11 11 11 11 11 12 12 13 13 13 13 13 13 14 14
14 13 13 13 13 12 12 12 11 11 11 11 11 11 11 11 11 11 11 11 11 11 10 10 10 10 10 10 10 10 10 11 11 11 12 12 13 13 13 13 13 13 13
13 13 12 12 12 12 11 11 11 10 10 10 10 10 10 10 10 10 10 10 10 10 10 10 10 10 10 10 10 10 10 11 11 11 11 12 12 12 13 13 13 13 13
12 12 11 11 11 10 10 9 9 9 8 8 8 8 8 8 8 8 9 9 9 9 9 9 9 9 9 10 10 10 10 10 10 10 11 11 11 12 13 13 12 12 12
11 10 10 9 9 8 7 7 7 6 6 6 6 6 6 6 6 7 7 7 8 8 8 9 9 9 9 9 9 10 10 10 10 10 10 11 11 12 12 12 12 12 12
10 9 8 7 7 6 6 5 5 4 4 4 4 4 4 5 5 5 5 6 6 7 7 7 7 8 8 8 9 9 9 10 10 10 10 10 11 12 12 12 12 12 12
8 7 7 6 6 5 4 4 4 3 3 3 3 3 4 4 4 4 4 4 5 5 6 6 6 7 8 8 8 9 9 9 9 9 9 10 10 11 12 12 12 12 12
7 6 5 4 4 4 4 3 3 3 3 3 3 3 3 4 4 4 4 4 4 5 5 5 6 6 7 7 8 9 9 9 9 9 9 9 10 10 11 11 11 12 11
6 5 4 4 4 4 4 4 3 3 3 3 3 3 3 3 4 4 4 4 4 4 5 5 5 6 6 7 8 8 9 9 9 9 8 9 9 10 10 10 11 11 11
5 5 4 4 4 4 4 4 4 3 3 3 3 3 3 3 3 4 4 4 4 4 4 5 5 6 7 8 8 9 9 9 9 8 8 8 8 9 9 10 11 11 11
5 5 4 4 4 4 4 4 4 4 3 3 3 3 3 3 3 3 4 4 4 5 5 5 5 6 7 8 8 8 8 8 8 8 7 8 8 9 9 10 10 11 11

GEFSMW_850_meantemp_012.txt.gz
Temperature
16 17 18 18 18 18 18 17 17 17 17 17 18 18 18 18 18 18 18 17 17 17 17 17 16 16 15 15 15 15 15 15 15 15 15 15 16 16 16 16 16 16 16
17 17 17 17 17 17 17 17 16 17 17 17 17 17 17 17 18 18 18 18 17 17 17 17 17 16 15 15 15 15 15 15 15 15 15 15 15 16 16 15 15 16 16
16 16 16 16 16 16 16 16 16 16 16 17 17 17 17 17 18 18 18 18 17 17 17 17 17 16 16 15 15 15 15 15 15 15 14 14 15 15 15 15 15 16 16
16 16 16 16 16 17 17 17 17 17 17 17 17 16 16 17 17 17 17 17 17 17 17 17 17 16 16 16 16 15 15 15 15 14 14 14 14 14 15 15 15 15 16
15 16 16 16 16 16 17 17 17 16 16 16 16 16 15 15 15 15 16 16 17 17 17 17 17 16 16 16 16 16 16 15 15 15 14 14 14 14 14 14 15 15 16
15 16 16 16 16 16 16 16 16 16 16 15 15 15 15 15 15 15 15 15 15 16 16 16 17 16 16 16 16 16 16 16 15 15 15 14 14 14 13 13 14 15 16
15 16 16 16 16 16 16 16 16 16 15 15 15 14 14 14 14 14 14 14 14 14 14 15 15 16 16 16 15 15 16 16 16 16 15 15 14 14 13 13 13 13 15
15 16 16 16 15 15 15 15 15 15 15 14 14 14 14 14 14 14 14 14 14 14 14 13 13 13 14 15 15 15 15 15 16 16 15 15 15 14 14 13 13 12 13
15 15 15 15 15 15 14 14 14 14 14 14 14 14 14 13 13 13 13 13 13 13 13 13 13 12 12 13 13 14 14 14 15 15 15 15 15 14 14 13 13 12 12
15 15 15 14 14 14 14 14 14 14 14 14 14 14 13 13 13 13 13 12 12 12 12 12 12 12 12 12 12 12 13 13 13 14 14 14 14 14 14 14 13 13 12
15 14 14 14 13 13 13 13 13 13 13 13 13 13 13 13 13 13 13 13 12 12 12 12 12 11 12 11 12 11 11 11 12 13 13 14 14 14 14 13 13 13 13
14 14 13 13 13 13 13 13 13 13 13 13 13 12 12 12 12 12 12 12 12 12 12 12 11 11 11 11 11 11 11 11 11 12 12 13 13 13 13 13 13 13 13
14 13 13 13 12 12 12 12 12 12 12 12 12 12 12 12 12 12 12 12 12 12 12 12 11 11 11 11 11 11 11 11 11 11 11 12 12 13 13 13 13 13 13
13 13 12 12 12 11 11 11 11 11 11 11 11 11 11 11 11 11 11 11 11 12 12 11 11 11 11 11 11 10 10 10 10 11 11 11 11 12 13 13 13 13 13
13 12 12 11 11 10 10 9 9 9 9 9 9 9 10 10 10 10 10 11 11 11 11 11 11 11 11 11 11 10 10 10 10 10 10 10 11 11 12 12 13 13 13
12 11 11 10 10 9 8 8 7 7 7 7 7 7 7 8 8 9 9 10 10 10 11 11 11 11 11 11 10 10 10 10 10 10 10 10 10 11 11 12 13 13 13
11 10 10 9 8 7 7 6 6 5 5 5 5 5 6 6 6 7 7 8 9 9 10 10 11 11 10 10 10 10 10 10 10 10 10 10 10 11 11 12 12 13 13
10 9 8 8 7 6 5 5 4 4 4 4 4 4 4 4 4 5 5 6 6 7 8 9 10 10 10 10 10 10 10 10 10 10 10 10 10 10 11 12 12 13 13
9 8 7 6 6 5 4 4 4 4 4 4 4 4 4 4 3 3 4 4 5 6 7 8 9 9 9 9 9 9 9 10 10 10 10 10 10 10 10 11 11 12 12
8 7 6 6 5 4 4 4 4 4 3 3 4 4 3 3 3 3 3 3 4 4 5 6 7 8 8 8 9 9 9 9 10 10 10 10 10 10 10 10 11 11 12
7 7 6 5 5 4 4 4 4 4 4 4 4 4 3 3 3 3 3 3 3 4 4 5 6 6 7 7 8 8 8 9 9 9 10 10 10 9 10 10 10 11 12
7 7 6 6 5 4 4 4 4 4 4 4 4 4 3 3 3 3 3 3 3 3 4 4 5 5 6 6 7 7 7 8 8 9 9 9 9 9 10 10 10 10 10
7 6 6 6 6 5 5 4 5 4 4 4 4 4 3 3 3 3 3 3 3 3 4 4 4 5 5 6 6 6 7 7 8 8 9 9 9 9 9 10 10 10 10
7 6 6 6 6 6 5 5 5 5 4 4 4 4 3 3 3 3 3 3 3 3 3 4 4 4 5 5 5 6 6 7 7 8 8 8 8 8 9 9 9 10 10
7 7 6 6 6 6 6 6 5 5 5 4 4 4 4 4 4 3 3 3 4 4 4 4 4 4 4 5 5 6 6 7 7 8 8 8 8 8 8 9 9 9 10
7 7 7 6 6 6 6 6 6 6 5 5 4 4 4 4 4 4 4 4 4 4 4 4 4 4 4 5 5 6 6 7 7 7 8 8 8 8 8 8 8 9 9

GEFSMW_850_meantemp_018.txt.gz
Temperature
17 16 16 17 16 16 16 17 17 17 17 17 17 16 16 16 16 16 16 16 16 16 16 16 16 16 16 16 16 16 16 16 16 16 17 17 17 17 17 16 17 17 17
18 17 17 17 17 17 17 17 17 17 17 17 17 16 16 15 15 15 16 16 17 17 16 16 16 16 16 16 16 16 16 16 16 16 17 18 18 17 17 17 16 16 17
18 18 18 17 17 17 17 17 17 17 17 17 16 15 15 16 15 15 15 16 16 17 17 16 16 16 16 16 16 15 15 16 16 16 16 18 19 19 18 16 16 16 16
18 18 18 17 17 17 16 16 16 16 16 16 15 15 15 15 14 14 14 14 15 16 16 16 16 16 16 16 16 15 15 15 16 16 15 16 17 17 19 17 16 16 16
18 18 17 17 17 16 16 16 16 16 16 16 15 15 15 15 15 14 14 14 14 14 15 15 16 16 16 16 16 15 15 15 15 16 16 15 15 15 16 18 17 16 16
18 18 17 17 16 16 16 15 15 15 14 14 14 14 14 14 14 14 14 14 14 14 14 14 15 15 15 15 15 15 15 15 15 15 16 16 16 16 16 17 17 17 17
18 18 17 17 16 16 15 15 14 13 13 13 13 13 13 13 13 13 13 13 14 14 13 13 14 14 14 15 15 15 15 15 15 15 15 15 16 16 16 17 17 17 16
18 18 17 16 16 15 15 14 13 13 13 13 12 12 12 12 13 13 13 13 13 13 13 13 13 13 13 14 14 14 14 14 14 14 14 15 15 15 16 16 16 17 17
18 17 17 16 15 15 14 13 13 12 12 12 12 12 12 11 12 11 11 12 12 12 12 12 12 13 13 13 13 13 13 14 14 14 14 14 14 15 15 15 16 16 18
18 17 16 16 15 14 14 13 12 12 11 11 11 11 11 11 11 11 11 11 11 11 11 11 12 12 12 12 13 12 12 13 13 13 13 13 14 14 14 15 15 15 16
17 17 16 15 14 14 13 13 12 11 11 10 10 10 10 10 10 10 10 10 10 10 10 11 11 11 11 11 12 12 12 12 12 12 12 12 13 13 13 14 14 14 15
16 16 15 14 14 13 12 12 11 10 10 9 9 9 8 9 9 9 9 9 9 9 10 10 10 11 11 11 11 11 12 12 12 11 11 12 12 12 13 13 13 14 14
16 15 14 14 13 12 11 11 10 9 9 8 8 8 8 8 8 8 8 8 8 8 9 9 10 10 11 11 11 11 11 11 11 11 11 11 11 11 12 12 13 13 13
15 14 13 13 12 11 10 10 9 8 8 7 7 7 7 7 7 7 7 7 7 7 8 8 9 9 10 10 10 11 11 11 11 11 11 11 11 11 11 11 12 12 13
15 14 13 12 11 10 9 9 8 7 7 6 6 6 6 6 6 6 6 6 6 6 7 7 8 8 9 10 10 10 10 10 10 10 10 10 10 11 10 11 11 12 12
14 13 12 11 10 10 9 8 7 7 6 6 6 6 6 6 6 6 5 5 5 5 5 6 6 7 8 10 10 10 10 10 10 10 10 10 10 10 10 10 10 11 11
13 12 11 11 10 9 8 7 7 6 6 6 6 6 5 5 5 5 5 5 5 5 5 5 5 6 7 8 9 10 10 10 10 10 10 10 10 10 9 10 10 10 10
12 11 11 10 10 9 8 7 7 6 6 6 6 5 5 5 5 5 4 4 4 4 4 4 5 5 6 7 8 9 9 9 10 10 10 10 10 9 9 9 9 10 10
11 11 10 10 9 8 7 7 6 6 6 6 6 5 5 5 5 4 4 4 4 4 4 4 4 5 5 7 8 9 9 9 9 10 10 10 10 10 9 9 9 10 10
11 10 10 9 9 8 7 6 6 6 6 6 5 5 5 5 4 4 4 4 4 4 4 4 4 4 5 6 7 8 8 9 9 9 10 10 10 10 10 10 9 10 10
10 10 9 9 8 7 6 6 6 6 6 5 5 5 5 5 5 5 4 4 4 4 4 4 4 4 5 6 7 8 8 9 9 10 10 10 10 10 10 10 10 10 10
10 10 9 9 8 7 6 6 6 6 5 5 5 5 5 5 5 5 5 4 4 4 4 4 4 4 5 5 6 7 8 8 9 10 10 10 10 10 10 10 10 10 10
10 9 9 8 8 7 7 6 6 5 5 5 5 5 5 5 5 5 5 5 4 4 4 4 4 5 5 5 6 6 7 8 8 9 9 9 9 9 9 10 10 10 10
9 9 8 8 8 7 7 6 6 6 5 5 5 5 5 5 5 5 5 5 5 4 4 4 4 5 5 5 5 6 7 7 8 8 8 9 9 9 9 9 9 9 10
9 8 8 7 7 7 7 6 6 6 5 5 5 5 5 6 6 6 6 5 5 4 4 4 4 5 5 5 5 6 6 7 7 8 8 8 8 8 9 9 9 9 9
9 8 7 7 7 7 7 6 6 6 6 5 5 5 6 6 6 6 6 6 5 5 5 5 5 4 4 5 5 5 6 6 7 7 8 8 8 9 9 9 9 9 9

GEFSMW_850_meantemp_024.txt.gz
Temperature
20 19 19 19 18 18 17 17 17 17 16 17 17 16 16 17 17 17 16 16 16 16 16 16 16 16 16 16 16 16 16 16 16 16 16 17 17 18 18 18 18 18 18
20 20 20 20 19 18 18 17 16 16 16 16 16 16 16 16 17 17 16 16 15 16 15 15 16 16 16 16 16 16 16 16 16 16 16 17 18 18 18 18 18 18 18
21 21 20 20 20 19 18 17 16 16 15 15 15 15 15 15 16 16 16 15 15 15 15 15 15 16 16 16 16 16 16 16 16 16 16 17 18 18 19 18 18 18 18
21 21 21 20 20 19 18 17 17 16 15 15 14 14 14 14 14 15 15 15 15 15 15 15 15 15 15 15 15 15 16 16 16 16 16 17 17 17 18 18 18 18 18
22 21 21 20 19 19 18 17 17 16 15 14 14 13 13 13 13 13 14 14 14 14 15 15 15 15 15 15 15 15 15 15 16 16 16 16 17 17 17 17 18 18 18
22 21 21 20 19 18 18 17 16 15 14 14 13 13 12 12 12 13 13 13 14 14 14 14 14 14 14 14 15 15 15 15 15 16 16 16 16 17 17 17 18 18 18
22 22 21 20 19 18 18 17 16 15 14 13 13 12 12 12 12 12 13 13 13 13 14 14 14 13 14 14 14 14 14 14 15 15 15 16 16 17 17 17 18 18 18
23 22 21 20 19 18 17 16 15 15 14 13 12 12 12 11 11 11 11 11 12 12 12 13 13 13 13 13 13 13 14 14 14 14 14 15 16 16 17 17 17 18 18
22 22 21 20 19 18 17 16 15 14 13 13 12 12 11 11 10 10 10 10 11 11 11 12 12 12 12 12 12 13 13 13 13 14 14 14 15 15 16 16 17 17 17
22 21 20 19 18 17 16 15 14 13 13 12 11 11 10 10 10 9 9 9 9 10 10 10 11 11 11 12 12 12 12 12 13 13 14 14 14 14 15 16 16 16 17
21 20 19 18 17 16 15 14 14 13 12 12 11 10 10 9 9 9 9 9 9 9 9 9 9 10 10 11 11 11 12 12 12 12 13 13 13 14 14 15 15 16 16
20 19 18 17 16 15 14 14 13 12 12 11 10 10 9 9 9 8 8 8 8 8 8 8 8 9 9 10 10 11 11 11 12 12 12 12 13 13 14 14 15 15 16
19 18 17 16 15 14 14 13 12 12 11 10 10 9 9 9 8 8 8 8 8 8 8 8 8 8 8 9 9 10 10 11 11 11 12 12 12 12 13 13 14 14 15
19 18 17 16 15 14 13 12 12 11 10 10 9 9 9 8 8 8 8 8 7 7 7 7 7 7 7 8 8 9 9 10 11 11 11 11 12 12 12 12 13 13 14
18 17 16 15 14 13 13 12 11 11 10 10 9 9 8 8 8 8 8 7 7 7 7 7 7 7 7 7 8 8 8 9 10 10 11 11 11 11 12 12 12 13 13
18 17 16 15 14 13 12 12 11 11 10 9 9 9 8 8 8 8 8 7 7 7 7 7 6 6 6 7 7 7 8 8 9 9 10 10 11 11 11 11 12 12 12
17 16 15 14 14 13 12 12 11 10 10 9 9 9 8 8 8 8 7 7 7 7 7 6 6 6 6 6 6 7 7 7 8 9 9 10 10 11 11 11 11 11 11
16 15 15 14 13 13 12 11 11 10 9 9 9 8 8 8 8 7 7 7 7 7 7 6 6 6 6 6 6 6 6 7 7 8 9 9 10 10 11 11 11 11 11
16 15 14 14 13 12 12 11 10 10 9 9 8 8 8 7 7 7 7 7 7 7 7 6 6 6 6 6 6 6 6 6 7 8 8 9 9 10 10 10 10 10 10
15 14 14 13 13 12 11 10 10 9 9 8 8 8 7 7 7 7 7 7 7 7 7 6 6 6 6 6 6 6 6 6 6 7 8 8 9 9 10 10 10 10 10
15 14 14 13 12 12 11 10 9 9 8 8 8 7 7 7 7 7 7 7 7 7 7 7 6 6 6 6 6 6 6 6 6 7 8 8 9 9 10 10 10 10 10
15 14 13 13 12 11 10 9 9 8 8 8 8 7 7 7 7 7 7 7 7 7 7 7 6 6 6 6 6 6 6 6 6 7 8 8 9 9 9 10 10 10 10
14 14 13 12 12 11 10 9 8 8 8 7 7 7 7 7 7 7 7 7 7 7 7 6 6 6 6 6 6 6 6 6 7 7 8 8 9 9 9 10 10 10 10
14 13 13 12 11 10 9 8 8 7 7 7 7 7 7 7 7 7 7 7 7 7 7 6 6 6 6 6 6 6 6 7 7 7 7 8 8 9 9 9 10 10 10
14 13 12 11 10 9 8 7 7 7 7 6 6 7 6 6 7 7 7 8 8 7 7 6 6 5 6 6 6 6 6 6 7 7 7 8 8 9 9 9 10 10 10
13 13 12 10 9 8 7 7 7 6 6 6 6 6 6 6 7 7 8 8 8 7 7 7 6 6 6 6 6 6 6 6 7 7 7 8 9 9 9 9 9 10 10

GEFSMW_850_meantemp_030.txt.gz
Temperature
18 18 18 18 18 18 18 18 18 17 17 17 16 16 16 16 15 15 15 15 15 15 15 15 15 15 15 15 15 15 15 15 15 15 15 16 16 16 16 17 17 17 17
19 19 19 18 18 18 18 18 17 17 17 16 16 15 15 15 14 14 14 14 14 14 14 14 15 15 15 15 15 15 15 15 15 15 15 15 16 16 17 17 17 17 17
19 19 19 19 18 18 18 18 17 17 16 16 15 15 15 14 14 14 14 14 14 14 14 14 14 14 14 14 14 15 15 15 15 15 15 15 16 17 17 17 17 18 17
20 20 19 19 19 18 18 18 17 17 16 16 15 15 14 13 13 13 13 13 13 13 13 14 14 14 14 14 14 14 14 14 15 15 15 15 15 15 16 17 17 17 17
20 20 20 19 19 18 18 17 17 16 16 15 15 14 13 13 12 12 12 12 12 12 13 13 13 13 14 14 14 14 14 14 14 15 15 15 15 15 15 16 17 17 17
20 20 20 19 19 18 18 17 17 16 15 14 14 13 13 12 12 11 11 11 12 12 12 12 12 13 13 13 13 13 13 14 14 14 14 14 14 15 15 16 16 17 17
20 20 20 19 19 18 17 17 16 15 15 14 13 13 12 12 11 11 11 11 11 11 11 11 12 12 12 12 12 12 13 13 13 13 14 14 14 14 15 15 15 16 17
20 20 19 19 18 18 17 16 16 15 14 13 13 12 12 11 11 11 10 10 10 10 10 10 11 11 11 11 12 12 12 12 12 13 13 13 14 14 14 14 15 15 16
20 19 19 18 18 17 17 16 15 14 13 13 12 12 11 11 10 10 10 10 9 9 9 10 10 10 11 11 11 11 11 12 12 12 12 12 13 13 14 14 14 14 15
19 19 19 18 18 17 16 15 14 14 13 12 12 11 11 10 10 10 9 9 9 9 9 9 9 10 10 10 10 10 11 11 11 11 11 12 12 13 13 13 13 14 14
20 19 19 18 17 17 16 15 14 13 13 12 12 11 11 10 10 9 9 9 9 8 8 8 9 9 9 9 9 10 10 10 10 11 11 11 11 12 12 13 13 13 13
19 19 18 18 17 16 15 14 13 13 12 12 11 11 10 10 10 9 9 9 8 8 8 8 8 8 8 8 9 9 9 9 9 10 10 10 11 11 11 12 12 13 13
19 18 18 17 16 15 14 14 13 13 12 12 11 11 10 10 10 9 9 9 8 8 8 8 8 8 8 8 8 8 8 9 9 9 9 10 10 10 11 11 11 12 12
18 18 17 16 16 15 14 13 13 12 12 12 11 11 10 10 9 9 9 8 8 8 8 8 8 8 8 7 7 8 8 8 8 8 9 9 9 10 10 11 11 11 12
18 17 17 16 15 14 14 13 13 12 12 11 11 11 10 10 9 9 9 8 8 8 8 7 7 7 7 7 7 7 7 7 7 8 8 8 9 9 10 10 10 11 11
18 17 17 16 15 14 13 13 12 12 11 11 11 10 10 9 9 9 8 8 8 7 7 7 7 7 7 7 7 6 6 6 7 7 7 8 8 8 9 9 10 10 10
18 17 16 15 15 14 13 13 12 12 11 11 10 10 9 9 9 8 8 7 7 7 7 7 7 7 7 7 7 7 6 6 6 7 7 7 7 8 8 9 9 10 10
17 17 16 15 14 14 13 12 12 11 11 10 10 9 9 8 8 8 8 7 7 7 7 7 7 7 7 7 7 7 6 6 6 6 6 6 7 7 7 8 9 9 10
17 16 15 15 14 13 13 12 11 11 10 10 9 9 8 8 8 7 7 7 7 7 7 7 7 7 7 7 7 7 6 6 6 6 6 6 6 7 7 7 8 9 9
17 16 15 15 14 13 12 12 11 10 10 9 9 8 8 7 7 7 7 7 7 7 7 8 8 7 7 7 7 6 6 6 6 6 6 6 6 6 7 7 8 8 9
17 16 15 14 14 13 12 11 10 10 9 9 8 8 7 7 7 7 7 7 7 7 7 7 8 7 7 7 6 6 6 6 6 6 6 6 6 6 6 7 7 8 9
17 16 15 14 13 12 12 11 10 9 9 8 8 8 7 7 7 7 7 7 7 7 7 7 7 7 7 6 6 6 6 6 6 6 6 6 6 6 6 7 8 8 8
17 16 15 14 13 12 11 10 9 9 8 8 8 7 7 7 7 7 7 7 7 7 7 7 7 7 6 6 6 6 6 6 6 6 6 6 6 6 6 7 7 8 8
17 16 15 14 13 12 11 10 9 8 8 8 7 7 7 7 7 7 7 7 7 7 7 7 7 7 6 6 6 6 6 6 6 6 6 6 6 6 7 7 7 8 8
17 16 15 14 13 12 11 10 9 8 8 8 7 7 7 7 7 7 7 8 8 8 7 7 7 7 6 6 6 6 6 6 6 6 6 6 6 6 7 7 7 8 8
17 16 15 14 13 12 11 10 9 8 8 8 7 7 7 7 7 7 8 9 8 8 8 8 7 7 6 6 6 6 6 6 6 6 6 6 6 6 7 7 7 8 8

GEFSMW_850_meantemp_036.txt.gz
Temperature
18 18 18 18 18 18 18 18 18 18 17 17 16 16 16 15 15 14 14 14 14 14 14 14 14 14 14 14 14 14 14 14 14 14 15 15 15 16 16 16 16 16 16
18 18 18 18 18 18 18 18 17 17 17 16 16 15 15 14 14 13 13 13 13 13 13 13 13 13 14 14 14 14 14 14 14 14 14 14 15 16 16 16 16 16 16
18 18 18 18 18 18 18 17 17 17 16 16 15 15 14 14 13 13 12 12 12 12 12 12 12 13 13 13 13 13 13 13 14 13 13 14 14 15 16 16 16 16 16
19 19 19 19 18 18 18 17 17 16 16 15 15 14 14 13 12 12 12 12 11 11 11 11 12 12 12 13 13 13 13 13 13 13 13 13 13 13 14 15 15 15 16
19 19 19 19 19 18 18 17 17 16 16 15 14 14 13 12 12 12 11 11 11 11 11 11 11 11 11 12 12 12 12 12 13 13 13 13 13 13 13 14 15 15 15
19 19 19 19 19 18 18 17 17 16 15 15 14 13 13 12 12 11 11 11 11 11 10 10 10 10 11 11 11 12 12 12 12 12 12 12 13 12 12 13 13 14 15
20 19 19 19 19 19 18 18 17 16 15 14 14 13 12 12 11 11 11 10 10 10 10 10 10 10 10 10 11 11 11 11 12 12 12 12 12 12 12 12 13 13 15
20 20 20 19 19 19 18 17 17 16 15 14 13 12 12 11 11 11 10 10 10 10 10 10 9 9 9 9 10 10 10 11 11 11 11 12 12 12 12 12 12 12 13
20 20 20 19 19 18 18 17 16 15 14 13 13 12 12 11 11 11 10 10 10 10 9 9 9 9 9 9 9 9 9 10 10 10 11 11 11 11 12 12 12 11 12
20 20 20 19 19 18 17 16 16 15 14 13 13 12 12 11 11 11 10 10 10 10 9 9 9 9 9 9 8 8 8 9 9 9 10 10 10 11 11 11 11 11 11
20 20 20 19 18 18 17 16 15 14 13 13 12 12 11 11 11 10 10 10 10 9 9 9 9 9 9 9 8 8 8 8 8 8 9 9 9 10 10 11 11 11 11
20 20 19 19 18 17 16 15 15 14 13 13 12 12 11 11 11 10 10 10 9 9 9 9 9 9 9 8 8 8 8 8 8 8 8 8 9 9 10 10 10 11 11
20 20 19 18 18 17 16 15 14 13 13 12 12 11 11 11 10 10 10 9 9 9 9 9 8 8 8 8 8 8 8 8 8 8 8 8 8 8 9 9 10 10 10
20 19 19 18 17 16 15 15 14 13 13 12 12 11 11 10 10 10 9 9 9 9 9 8 8 8 8 8 8 8 8 8 8 8 8 8 7 8 8 8 9 9 10
20 19 19 18 17 16 15 14 14 13 12 12 11 11 10 10 10 9 9 9 9 8 8 8 8 8 8 8 8 8 8 8 8 8 8 8 7 7 7 8 8 9 9
20 19 18 18 17 16 15 14 13 13 12 11 11 10 10 10 9 9 9 9 9 8 8 8 7 7 7 8 7 7 7 7 7 8 8 8 7 7 7 7 7 8 8
20 19 18 17 16 15 15 14 13 12 12 11 11 10 10 9 9 9 8 8 8 8 8 7 7 7 8 8 7 7 7 7 7 7 8 8 8 7 7 7 7 7 8
19 19 18 17 16 15 14 14 13 12 12 11 10 10 9 9 9 8 8 8 8 7 7 7 7 7 8 8 7 7 7 7 7 7 7 7 7 7 7 7 6 7 7
19 19 18 17 16 15 14 14 13 12 11 11 10 9 9 8 8 8 8 7 7 7 7 7 7 7 8 8 7 7 7 7 7 7 7 7 7 7 7 6 6 6 7
19 19 18 17 16 15 14 14 13 12 11 11 10 9 8 8 8 8 7 7 7 7 7 7 7 7 8 8 7 7 7 7 7 6 6 6 6 6 6 6 6 6 6
20 19 18 17 16 15 14 14 13 12 11 11 10 9 8 8 8 7 7 7 7 7 7 8 8 8 7 7 7 7 6 6 6 6 6 6 6 6 6 6 5 6 6
20 19 18 17 16 15 14 14 13 12 11 11 10 9 9 8 7 7 7 7 7 7 8 8 8 8 8 7 7 6 6 6 6 6 6 6 6 6 6 5 5 5 6
20 19 18 17 16 15 14 14 13 12 12 11 10 10 9 8 7 7 7 7 7 7 8 8 8 8 8 7 7 6 6 6 5 6 6 6 5 5 5 5 5 5 5
20 19 17 17 16 15 15 14 13 13 12 11 10 10 9 8 8 7 7 7 7 8 8 8 8 8 8 7 7 7 6 6 6 5 5 5 5 5 5 5 5 5 5
20 18 17 17 16 15 15 14 13 13 12 11 10 9 9 8 8 8 7 7 8 7 7 8 8 8 8 7 7 7 6 6 6 5 5 5 5 5 5 5 5 5 5
20 18 17 17 16 15 15 14 13 12 12 11 10 9 9 8 8 8 8 8 8 8 8 8 8 8 8 7 7 7 6 6 6 5 5 5 5 5 5 5 5 5 5

GEFSMW_850_meantemp_042.txt.gz
Temperature
18 18 18 18 18 17 17 17 17 17 17 16 16 16 15 15 14 14 13 13 12 12 12 13 12 13 13 13 14 14 14 15 14 15 15 16 16 16 16 16 16 16 16
19 18 18 18 18 18 17 17 17 17 17 16 16 16 15 14 14 13 12 12 12 12 12 12 12 12 12 12 13 13 14 14 14 14 15 16 17 16 16 16 16 16 16
20 19 19 18 18 18 18 17 17 17 17 16 15 15 15 14 14 13 13 12 11 11 11 11 11 11 12 13 12 12 13 14 14 14 15 16 17 16 16 16 16 15 15
20 20 20 19 19 18 18 17 17 17 17 16 15 15 15 14 14 13 12 12 11 11 11 11 11 11 11 11 12 12 12 12 14 14 14 14 14 14 16 16 16 15 15
21 20 20 20 19 19 18 18 17 17 17 16 16 15 14 14 14 13 12 11 11 11 10 10 10 10 11 10 11 11 11 12 13 14 14 14 14 14 14 15 15 15 15
21 21 20 20 19 19 18 18 17 17 17 16 15 15 14 13 13 12 12 12 12 11 11 10 10 10 10 10 10 10 11 11 11 12 13 13 14 14 15 15 15 15 15
22 21 21 20 19 19 18 18 17 17 16 16 15 14 14 13 12 12 12 11 12 12 11 10 10 10 9 9 10 10 10 10 10 11 12 12 13 13 14 14 15 15 15
23 22 21 21 20 19 18 18 17 17 16 16 15 14 14 13 13 12 12 12 11 11 10 10 10 9 9 9 9 10 10 10 10 10 10 11 12 12 13 13 14 14 15
23 22 22 21 20 19 18 18 17 16 16 15 14 14 13 13 12 12 11 11 11 11 10 10 10 9 9 9 9 9 9 9 9 10 10 10 11 11 12 12 13 13 14
23 22 22 21 20 19 18 17 17 16 15 15 14 14 13 12 12 12 11 11 11 10 10 10 10 9 9 9 9 9 9 9 9 9 9 9 10 11 11 12 12 13 13
23 22 21 20 19 19 18 17 17 16 15 14 14 13 13 12 12 11 11 11 10 10 10 10 10 9 9 9 9 9 9 9 9 9 9 9 9 10 10 11 11 12 12
23 22 21 20 19 19 18 17 16 16 15 14 14 13 13 12 11 11 11 10 10 10 10 10 9 9 9 9 9 8 9 9 9 9 9 9 9 9 9 10 10 11 11
22 21 20 20 19 19 18 17 17 16 15 14 14 13 12 12 11 11 11 10 10 10 10 9 9 9 9 9 9 8 8 8 8 8 8 8 8 8 9 9 10 10 11
22 21 20 20 19 18 18 17 17 16 15 14 14 13 12 12 11 11 10 10 10 10 9 9 9 9 9 9 8 8 8 8 8 8 8 8 8 8 8 8 9 9 10
21 21 20 20 19 18 18 17 17 16 15 14 14 13 12 12 11 11 10 10 10 9 9 9 9 9 8 8 8 8 8 8 8 8 8 8 8 8 8 8 9 9 9
22 21 21 20 19 19 18 17 17 16 15 14 14 13 12 12 11 10 10 10 9 9 9 9 9 8 8 8 8 8 7 7 8 8 8 8 8 8 8 8 8 8 8
22 22 21 20 20 19 18 17 17 16 15 14 14 13 12 12 11 10 10 10 9 9 9 9 8 8 8 8 8 8 8 7 7 7 8 8 9 8 8 8 8 8 8
23 22 21 21 20 19 18 18 17 16 15 14 14 13 12 12 11 10 10 10 9 9 9 8 8 8 8 8 8 8 8 7 7 7 7 8 8 8 8 7 8 7 7
23 22 22 21 20 19 18 17 16 16 15 14 14 13 12 12 11 11 10 10 9 9 9 8 8 8 8 8 8 8 8 7 8 8 8 7 7 7 7 7 7 7 7
23 22 21 21 20 19 18 18 16 16 15 14 13 13 12 12 12 11 11 10 9 9 9 8 8 8 8 8 8 8 7 7 8 8 8 7 7 7 7 6 6 6 7
22 22 21 20 20 19 19 18 17 16 15 14 14 13 13 12 12 11 11 10 9 9 8 8 8 8 9 9 8 8 8 7 7 7 8 8 7 7 7 6 6 6 6
22 21 20 20 19 19 19 18 17 16 15 15 14 13 13 12 11 11 11 10 9 8 8 8 8 8 8 8 8 8 8 7 7 7 7 7 7 6 6 6 6 6 6
21 20 20 19 19 19 18 18 17 16 15 15 14 13 13 12 12 11 10 9 8 8 8 8 8 9 9 8 8 8 8 8 7 7 7 7 7 6 6 6 6 6 6
19 19 19 18 18 18 17 17 16 16 15 15 14 13 13 12 11 10 9 9 9 8 8 8 8 8 9 8 8 8 7 7 7 7 7 7 7 6 6 6 6 6 6
18 18 17 17 16 16 17 16 16 15 15 14 14 13 12 12 11 10 10 9 9 8 8 8 8 8 8 8 8 8 7 7 7 7 6 6 6 6 6 6 6 6 6
16 16 16 16 16 16 16 16 15 15 15 14 13 12 12 11 11 10 10 10 9 9 8 8 8 8 8 8 8 8 8 8 7 7 6 6 7 7 7 6 6 6 6

GEFSMW_850_meantemp_048.txt.gz
Temperature
20 19 19 19 18 18 18 18 18 18 18 17 17 17 17 17 16 16 15 15 14 14 14 13 14 14 14 14 14 14 14 15 15 15 16 16 17 17 17 17 17 17 17
20 19 19 19 19 18 18 18 18 18 18 17 17 17 17 16 16 16 15 14 14 13 13 13 13 13 13 13 13 13 13 14 14 15 15 16 17 17 17 17 17 17 17
20 20 20 20 19 19 19 19 18 18 18 17 17 17 16 16 16 16 15 15 14 13 13 12 12 12 13 13 13 13 13 13 14 14 15 15 16 16 17 17 17 17 17
21 21 21 20 20 20 19 19 19 18 18 17 17 16 16 16 16 16 15 15 14 13 13 12 12 12 12 12 12 13 13 13 13 14 14 15 15 15 15 16 17 17 16
22 22 21 21 21 21 20 19 19 18 18 17 17 16 16 16 16 15 15 14 14 14 13 13 12 12 12 12 12 12 12 12 12 13 13 14 14 15 15 15 16 16 16
23 22 22 22 22 21 21 20 19 18 18 17 17 16 16 15 15 15 14 14 14 14 14 13 12 12 12 12 12 12 12 12 12 12 13 13 13 14 14 15 15 16 16
24 23 23 22 22 22 21 20 19 19 18 17 16 16 15 15 15 15 14 14 14 14 14 13 13 12 12 11 11 11 11 11 11 12 12 12 12 13 13 14 14 15 15
24 24 23 23 22 22 21 21 20 19 18 17 17 16 16 15 15 15 14 14 14 13 13 13 12 12 11 11 11 11 11 11 11 11 11 12 12 12 13 13 13 14 14
25 24 24 23 23 22 22 21 20 19 18 17 17 16 16 15 15 14 14 13 13 13 13 12 12 11 11 11 11 11 11 11 11 11 11 11 11 12 12 13 13 13 13
26 25 25 24 23 22 21 20 20 19 18 17 17 16 16 15 14 14 13 13 13 13 12 12 12 11 11 11 11 11 11 11 11 11 11 11 11 11 12 12 12 13 13
26 26 25 24 23 22 21 20 19 19 18 17 17 16 16 15 14 14 13 13 12 12 12 12 12 11 11 11 11 11 11 11 11 11 11 11 11 11 11 11 11 12 12
27 26 25 24 23 22 21 20 19 18 18 17 17 16 16 15 14 14 13 13 13 12 12 12 12 11 11 11 11 11 11 11 10 10 10 10 10 10 11 11 11 11 11
27 26 25 24 23 22 21 20 19 19 18 17 17 16 16 15 15 14 14 13 13 12 12 12 12 11 11 11 11 11 11 10 10 10 10 10 10 10 10 10 10 11 11
26 26 25 23 23 22 21 20 20 19 18 18 17 16 16 16 15 14 14 13 13 12 12 12 12 11 11 11 11 10 10 10 10 10 10 10 10 10 10 10 10 10 10
26 25 24 23 22 22 21 20 20 19 18 18 17 17 16 16 15 15 14 14 13 13 12 12 11 11 11 11 11 10 10 10 10 10 10 9 9 9 10 10 10 10 10
26 25 24 23 22 21 21 20 19 19 18 18 17 17 16 16 15 15 14 14 13 13 12 12 12 11 11 11 11 10 10 10 10 10 9 9 9 10 10 10 10 10 10
26 25 24 23 22 21 21 20 20 19 19 18 18 17 16 16 15 15 14 14 13 13 13 12 12 11 11 10 10 10 10 10 10 10 9 9 9 9 10 9 9 9 10
26 26 25 24 23 22 21 20 20 19 19 18 18 17 16 16 15 15 15 14 14 13 13 12 12 11 11 10 10 10 10 10 10 10 9 9 9 9 9 9 9 9 9
26 25 25 24 23 22 22 21 20 19 18 18 17 17 16 16 16 15 15 15 14 14 13 12 11 11 11 10 10 10 9 9 9 9 9 9 9 9 9 9 9 9 9
25 25 25 24 24 23 22 21 20 19 18 18 17 17 17 16 16 15 15 15 14 14 13 12 11 11 11 10 10 10 9 9 9 9 9 9 9 9 9 9 9 8 9
24 24 24 24 23 23 22 21 20 19 19 18 17 17 16 16 16 15 15 15 14 13 13 12 12 11 11 11 10 10 9 9 9 9 9 9 9 9 9 9 8 8 8
23 23 23 22 22 22 21 21 20 19 18 18 17 17 16 16 15 15 15 14 14 13 12 12 12 11 11 11 11 10 10 9 9 9 9 9 9 9 9 8 8 8 8
20 20 20 20 20 20 20 19 19 18 17 17 17 16 16 16 15 15 14 14 13 12 12 12 12 12 11 11 11 10 10 9 9 9 9 8 8 8 8 8 8 8 7
18 18 18 18 19 18 18 18 17 17 16 16 16 16 15 15 15 14 14 13 13 12 12 12 12 11 11 11 10 10 9 9 9 9 8 8 8 8 8 8 8 8 8
17 17 17 17 17 17 17 16 16 15 15 15 15 15 14 14 14 14 13 13 13 13 12 12 12 11 11 11 10 10 9 9 8 8 8 8 8 8 8 8 8 8 7
16 16 16 16 16 16 15 15 15 14 14 14 14 14 14 14 14 13 13 13 13 13 13 12 12 12 11 11 10 10 9 9 9 8 8 8 8 8 8 8 8 8 8

GEFSMW_850_meantemp_054.txt.gz
Temperature
18 18 18 18 18 18 18 18 18 18 18 18 17 17 17 16 16 16 15 15 15 15 15 14 14 14 14 14 14 14 14 14 14 15 15 16 16 16 16 16 16 17 16
18 18 18 18 18 18 18 18 18 18 18 18 17 17 16 16 16 15 15 15 15 15 14 14 14 14 14 13 13 13 13 14 14 14 14 15 15 16 16 16 16 16 16
18 18 18 18 18 19 19 19 19 18 18 18 17 17 16 16 16 15 15 15 15 14 14 14 14 14 13 13 13 13 13 13 13 13 13 13 14 14 15 15 15 15 16
19 19 19 19 19 19 19 19 19 19 18 18 17 17 16 16 16 15 15 15 14 14 14 14 13 13 13 13 13 13 13 13 13 13 13 13 13 13 14 15 15 15 15
19 19 19 19 19 19 19 19 19 19 18 18 17 17 16 16 16 15 15 15 14 14 14 13 13 13 13 13 13 13 12 12 12 12 13 13 13 13 13 13 14 15 15
20 20 20 20 20 20 20 19 19 19 18 18 17 17 17 16 16 15 15 15 14 14 14 13 13 13 13 13 13 12 12 12 12 12 12 12 12 12 12 12 13 14 15
20 20 20 20 20 20 20 20 19 19 18 18 18 17 17 16 16 15 15 14 14 14 13 13 13 13 13 12 12 12 12 12 12 12 12 12 12 12 12 12 12 13 14
21 21 21 21 21 21 20 20 20 19 19 18 18 17 17 16 16 16 15 15 14 14 13 13 13 13 12 12 12 12 12 12 12 11 11 11 11 11 11 11 11 12 12
22 22 22 22 21 21 21 21 20 20 19 19 18 18 17 17 16 16 15 15 14 14 13 13 13 12 12 12 12 12 12 12 11 11 11 11 11 11 11 11 11 11 11
22 22 22 22 22 22 21 21 21 20 19 19 18 18 18 17 17 16 16 15 15 14 13 13 13 13 12 12 12 12 12 11 11 11 11 11 11 11 11 11 11 11 11
23 23 23 23 22 22 22 21 21 20 20 19 19 19 18 18 17 17 16 16 15 14 14 13 13 13 12 12 12 12 11 11 11 11 11 11 11 11 11 11 11 11 11
24 24 24 23 23 22 22 21 21 21 20 20 19 19 18 18 17 17 17 16 15 14 14 13 13 13 12 12 12 11 11 11 11 11 11 11 11 11 10 10 10 10 10
24 24 24 23 23 23 22 22 21 21 20 20 20 19 19 18 18 17 17 16 15 15 14 14 13 13 12 12 12 11 11 11 11 11 11 11 10 10 10 10 10 10 10
25 24 24 24 23 23 23 22 22 21 21 20 20 19 19 18 18 17 17 16 16 15 15 15 14 14 13 12 12 12 11 11 11 11 10 10 10 10 10 10 10 10 10
25 25 24 24 24 23 23 22 22 21 21 21 20 20 19 19 18 17 17 16 16 16 15 15 15 14 14 13 13 12 12 11 11 10 10 10 10 10 10 10 10 10 9
25 25 25 24 24 24 23 23 22 22 21 21 21 20 19 19 18 18 17 17 16 16 16 15 15 14 14 13 13 12 11 11 11 10 10 10 10 10 10 10 9 9 9
24 24 24 24 24 24 23 23 23 22 21 21 21 20 19 19 18 18 17 17 17 16 16 15 15 15 14 13 13 12 12 11 11 10 10 10 10 10 10 10 9 9 9
23 24 24 24 24 24 23 23 22 22 21 21 20 20 19 19 18 18 17 17 17 16 16 15 15 15 15 14 13 12 12 11 11 11 10 10 10 10 10 9 9 9 9
22 23 23 23 23 23 23 22 22 21 21 20 20 20 19 19 18 18 17 17 16 16 16 16 15 15 15 14 13 12 12 11 11 11 10 10 10 10 9 9 9 9 9
21 21 22 22 22 22 22 21 21 21 20 20 20 20 19 18 18 18 17 17 16 16 16 15 15 15 14 14 13 12 12 11 11 11 11 10 10 10 9 9 9 9 9
19 19 20 20 20 20 20 20 20 19 20 19 19 19 18 18 17 17 16 16 16 15 15 15 15 14 14 14 13 12 12 12 11 11 11 11 10 10 9 9 9 9 9
18 18 18 18 18 18 18 18 18 18 18 18 17 17 17 16 16 16 15 15 15 15 15 15 14 14 14 13 13 12 12 11 11 11 11 10 10 10 9 9 9 9 8
16 16 17 17 17 16 17 16 16 16 16 16 16 16 15 15 15 15 14 14 14 14 14 14 14 14 14 13 13 12 12 11 11 11 10 10 10 9 9 9 9 8 8
16 16 16 16 15 15 15 15 15 15 15 14 14 14 14 14 14 13 13 13 13 13 13 13 13 13 13 13 13 12 12 11 11 11 10 10 9 9 9 9 9 9 8
15 14 14 14 14 14 14 14 14 14 13 13 13 13 12 12 12 12 12 12 12 12 12 12 12 12 12 12 12 12 11 11 11 10 10 9 9 9 9 9 9 9 8
14 14 13 13 13 13 12 12 12 12 12 12 12 12 11 11 11 11 11 11 11 11 11 11 12 12 12 12 12 11 11 11 10 10 9 9 9 9 9 9 9 9 8

GEFSMW_850_meantemp_060.txt.gz
Temperature
17 17 17 17 17 17 17 18 18 18 17 17 17 17 16 16 16 15 15 15 14 14 14 14 14 14 14 14 14 14 14 14 14 14 15 15 15 15 15 15 16 16 16
17 17 17 17 17 17 18 18 18 18 18 17 17 17 16 16 16 15 15 15 14 14 14 14 14 13 13 13 13 13 13 13 14 14 14 14 14 14 15 15 15 15 16
18 17 17 17 17 17 18 18 18 18 18 17 17 17 16 16 16 15 15 15 14 14 14 13 13 13 13 13 13 13 13 13 13 13 14 14 14 14 14 14 15 15 15
18 18 18 18 18 18 18 18 18 18 18 17 17 17 17 16 16 15 15 14 14 14 14 13 13 13 13 13 13 13 13 13 13 13 13 13 13 14 14 14 14 14 14
18 18 18 18 18 18 18 18 18 18 18 18 17 17 17 16 16 15 15 15 14 14 14 13 13 13 13 12 12 12 12 12 12 12 12 12 12 13 13 13 14 14 14
19 19 18 18 18 18 18 18 18 18 18 18 17 17 17 16 16 16 15 15 14 14 14 13 13 13 12 12 12 12 12 12 12 12 12 12 12 12 12 12 13 13 14
19 19 19 19 19 19 19 19 18 18 18 18 18 17 17 16 16 16 15 15 15 15 14 14 13 13 12 12 12 12 12 12 12 11 11 11 11 11 11 12 12 12 13
20 20 20 20 20 19 19 19 19 19 19 18 18 17 17 16 16 16 16 15 15 15 14 14 13 13 13 12 12 12 12 12 11 11 11 11 11 11 11 11 11 11 12
20 20 20 20 20 20 20 20 20 19 19 19 18 18 17 17 16 16 16 16 16 15 15 14 14 13 13 12 12 12 12 11 11 11 11 11 11 11 11 11 10 10 10
21 21 21 21 21 21 21 20 20 20 20 19 19 18 17 17 17 16 16 16 16 16 15 15 14 14 13 13 12 12 12 12 11 11 11 11 11 11 11 10 10 10 10
22 22 22 22 22 21 21 21 21 20 20 19 19 18 18 17 17 17 17 17 16 16 16 15 15 14 14 13 13 13 12 12 12 11 11 11 11 11 11 10 10 10 10
23 23 23 22 22 22 22 21 21 21 20 20 20 19 18 18 18 18 17 17 17 17 16 16 15 15 14 14 13 13 13 12 12 12 11 11 11 11 11 10 10 10 10
23 23 23 23 22 22 22 22 22 21 21 21 20 19 19 19 18 18 18 18 17 17 17 16 16 16 15 14 14 14 13 13 12 12 12 11 11 11 11 10 10 10 10
22 23 23 23 23 23 23 22 22 22 21 21 20 20 20 19 19 19 18 18 18 17 17 17 16 16 15 15 14 14 14 13 13 12 12 12 11 11 11 11 10 10 10
22 22 23 23 23 23 23 23 22 22 22 21 21 20 20 20 19 19 18 18 18 18 17 17 17 16 16 15 15 14 14 14 13 13 12 12 11 11 11 10 10 10 10
21 21 22 22 23 23 23 23 22 22 22 21 21 20 20 20 19 19 18 18 18 18 17 17 17 16 16 16 15 15 14 14 13 13 13 12 12 11 11 11 10 10 10
19 20 21 21 22 22 22 22 22 22 21 21 21 20 20 19 19 19 18 18 18 18 17 17 17 16 16 16 15 15 14 14 14 13 13 12 12 11 11 11 10 10 10
18 19 20 20 20 21 21 21 21 20 20 20 19 19 19 19 18 18 18 18 17 17 17 17 16 16 16 15 15 15 14 14 14 13 13 12 12 12 11 11 10 10 10
17 18 18 19 19 19 19 19 19 19 19 18 18 18 18 18 17 17 17 17 17 16 16 16 16 16 15 15 15 14 14 14 14 13 13 12 12 12 11 10 10 10 11
17 17 17 18 18 18 18 18 18 17 17 17 16 16 16 16 16 16 16 16 15 15 15 15 15 15 15 14 14 14 13 13 13 13 13 13 12 12 11 10 10 10 11
16 16 17 17 16 16 16 16 16 15 15 15 15 15 15 15 15 15 14 14 14 14 14 14 14 14 14 14 13 13 13 12 12 12 13 13 12 12 11 11 10 11 10
15 15 15 15 15 15 15 15 14 14 14 14 14 14 13 13 13 13 13 13 12 12 12 13 13 13 13 13 13 12 12 12 11 12 12 12 12 11 11 11 10 10 10
14 14 14 14 14 14 13 13 13 13 13 13 13 12 12 12 12 12 12 12 11 11 11 11 11 11 12 12 12 11 11 11 11 11 11 11 11 11 11 10 10 10 9
13 13 13 13 13 12 12 12 12 11 12 12 11 11 11 11 11 11 10 10 10 10 10 10 10 10 10 10 11 11 11 11 11 11 11 11 11 10 10 10 10 10 9
12 12 12 12 11 11 11 11 11 11 11 10 10 10 10 10 10 10 9 9 9 9 9 9 9 9 9 9 9 9 10 10 10 10 10 10 10 10 10 10 10 10 9
12 11 11 11 11 10 10 10 10 10 10 10 10 9 9 9 9 9 9 9 9 8 8 8 8 8 8 8 9 9 9 9 9 9 9 9 10 10 10 10 10 10 9

GEFSMW_850_meantemp_066.txt.gz
Temperature
17 17 17 17 17 17 17 17 17 17 17 17 17 16 16 16 15 15 15 15 14 14 14 14 14 14 14 14 14 14 14 15 14 16 16 16 16 16 15 16 16 16 16
17 17 17 17 17 17 17 17 17 17 17 17 17 16 16 15 15 15 15 15 14 14 14 14 14 13 13 13 13 13 14 14 14 15 17 17 17 15 16 15 15 15 16
18 17 17 17 17 17 17 17 17 17 17 17 17 16 16 16 15 15 15 15 14 14 14 14 13 13 13 13 13 13 13 14 14 14 15 17 19 17 16 15 15 15 15
18 18 17 17 17 17 17 17 17 17 17 17 17 16 16 16 16 15 15 15 14 14 14 14 13 13 13 13 13 13 13 13 15 14 14 14 15 16 17 16 15 15 15
19 18 18 18 18 18 18 17 18 18 18 17 17 17 16 16 16 16 15 15 14 14 14 14 13 13 13 13 13 13 13 13 14 14 14 14 14 15 16 17 16 15 15
19 19 18 18 18 18 17 17 18 18 18 17 17 17 16 16 16 16 16 15 15 14 14 14 14 13 13 13 13 12 13 13 13 13 14 14 15 15 15 16 16 16 15
20 19 19 18 18 18 17 17 17 18 18 18 18 17 17 17 16 16 16 16 15 15 14 14 14 13 13 13 13 13 12 12 12 12 13 13 14 14 14 15 15 15 15
21 20 19 19 18 18 18 18 18 18 18 18 18 18 18 17 17 16 16 16 16 15 15 15 14 14 13 13 13 13 12 12 12 12 12 12 13 13 13 14 14 15 16
22 21 20 19 19 19 18 18 18 18 18 18 18 18 18 18 17 17 17 16 16 15 15 15 15 14 14 14 13 13 12 12 12 12 12 12 13 12 13 13 13 14 15
22 22 21 20 20 19 19 19 18 19 19 19 19 18 19 18 18 17 17 17 16 16 16 15 15 15 14 14 14 13 13 12 12 12 12 12 12 12 12 12 12 13 13
23 23 22 21 21 20 20 19 19 19 19 19 19 19 19 19 18 18 18 17 17 17 17 16 16 15 15 15 15 13 13 13 13 12 12 12 12 12 12 12 12 12 12
24 23 23 22 21 21 20 20 20 19 19 19 19 19 19 19 19 18 18 18 18 17 17 17 16 16 15 15 15 15 14 14 13 13 12 12 12 12 12 12 12 12 12
23 23 23 22 22 21 21 21 20 20 20 19 19 20 19 19 19 19 19 18 18 18 17 17 17 17 16 16 16 15 15 15 14 14 13 13 12 12 12 12 12 12 12
22 22 22 21 21 21 21 20 20 20 20 19 19 19 20 19 19 19 19 19 18 18 18 17 17 17 17 16 16 16 16 15 15 14 14 14 13 13 13 12 12 12 12
21 21 21 20 20 20 20 20 19 19 19 19 19 19 19 19 19 19 19 19 18 18 18 18 17 17 17 16 16 16 15 15 15 15 15 14 14 14 13 13 12 12 11
19 19 19 19 19 19 19 19 19 19 19 19 19 18 18 18 18 18 18 18 18 18 18 17 17 17 16 16 16 16 15 15 15 15 15 14 14 14 14 14 13 13 12
17 17 17 17 17 18 18 18 18 18 17 17 17 17 17 17 17 17 17 17 17 17 17 17 17 16 16 16 16 16 15 15 14 14 14 14 14 14 14 14 14 14 13
16 16 16 16 17 17 17 17 17 17 17 16 16 16 16 16 16 16 16 16 16 16 16 16 16 16 16 16 16 15 15 14 14 14 14 14 14 13 13 13 13 13 13
14 14 15 15 16 16 16 16 16 16 15 15 15 15 15 15 15 15 15 15 15 15 15 15 14 14 14 14 15 14 14 13 13 13 13 13 13 13 13 13 12 12 12
14 14 14 14 15 15 15 16 15 15 14 14 14 14 14 14 14 14 14 14 14 13 13 13 13 13 13 13 13 13 13 12 12 12 12 13 13 13 13 12 12 12 12
13 13 13 14 14 14 14 14 14 13 13 13 13 13 13 13 13 13 13 13 12 12 12 12 12 12 12 12 12 12 11 11 11 11 12 12 12 12 12 12 11 11 11
13 13 13 12 12 13 13 13 12 12 12 12 12 12 12 12 11 11 11 11 11 11 11 11 11 11 11 11 10 10 10 10 10 10 10 11 11 11 11 11 11 11 11
13 13 12 12 11 11 12 12 11 11 10 11 10 10 10 10 10 10 10 10 10 10 10 10 10 10 10 10 9 9 9 9 9 9 9 9 9 10 10 10 10 10 10
12 12 12 12 11 11 10 10 10 10 10 10 10 10 10 10 10 10 10 10 10 10 9 9 9 9 9 9 8 8 8 8 8 8 8 8 9 9 9 9 9 9 9
12 12 11 11 11 10 10 10 10 10 10 10 10 10 10 10 9 9 9 9 8 8 8 8 8 8 8 7 7 7 6 6 6 7 7 7 8 8 9 9 9 9 9
12 11 11 11 10 10 10 10 9 9 9 10 10 10 10 10 9 9 9 9 8 8 7 7 7 7 6 6 6 6 6 6 6 6 6 7 7 8 8 8 9 9 9

GEFSMW_850_meantemp_072.txt.gz
Temperature
19 18 18 18 18 18 18 18 18 18 18 18 17 17 17 17 17 17 17 16 16 16 16 16 16 16 16 16 16 16 16 17 17 17 17 18 18 17 17 17 17 17 17
19 18 18 18 18 18 18 18 18 18 18 17 17 17 17 17 17 17 17 16 16 16 16 16 16 16 16 16 15 16 16 16 17 17 17 18 18 18 18 17 17 17 17
19 18 18 18 18 18 18 18 18 18 17 17 17 17 17 17 17 17 17 16 16 16 16 15 15 15 15 15 15 15 15 16 16 17 17 17 17 17 17 17 17 17 17
19 19 18 18 18 18 18 18 18 18 17 17 17 17 17 17 17 17 17 16 16 15 15 15 15 15 15 15 15 15 15 16 16 16 17 16 17 17 17 17 17 17 17
20 19 19 18 18 18 18 18 18 17 17 17 17 17 17 17 17 17 17 17 16 16 15 15 15 15 15 15 15 15 15 15 16 16 16 16 17 17 17 17 17 17 17
21 20 19 19 19 18 18 18 18 17 17 17 17 17 17 17 17 17 17 17 16 16 16 16 16 15 15 15 15 15 15 15 16 16 16 16 16 17 17 17 17 17 17
21 20 20 19 19 18 18 18 18 17 17 17 17 17 17 17 17 17 17 17 17 17 16 16 16 15 15 15 15 15 15 15 15 16 15 15 16 16 16 16 16 17 17
22 21 20 20 19 19 18 18 18 18 18 18 18 18 18 18 17 17 17 17 17 17 17 17 17 16 15 15 15 15 15 15 15 15 15 15 15 15 15 15 15 16 16
23 22 21 20 20 19 19 18 18 18 18 18 18 18 18 18 17 17 17 17 17 17 17 17 17 17 16 15 15 15 14 15 15 15 15 15 15 15 15 15 15 15 15
24 23 22 21 20 20 19 19 19 18 18 18 18 18 18 18 18 18 17 17 17 17 17 17 17 17 17 16 16 15 15 15 15 15 15 15 15 15 15 15 14 14 14
24 24 23 22 21 21 20 19 19 19 18 18 18 18 18 18 18 18 18 18 18 17 17 17 17 17 17 17 16 16 15 15 15 15 15 15 15 15 15 14 14 14 14
25 25 24 23 22 21 21 20 19 19 19 19 18 19 18 18 18 18 18 18 18 18 18 18 18 17 17 17 17 17 16 15 15 16 15 15 15 15 15 15 14 14 14
25 25 24 23 23 22 22 21 20 20 19 19 19 19 19 19 18 18 18 18 18 18 18 17 18 18 17 17 17 17 17 16 16 16 16 16 15 15 15 15 15 15 14
25 24 24 23 23 22 22 22 21 21 20 20 19 19 19 19 19 18 18 18 18 18 18 17 17 17 17 17 17 17 17 17 16 16 16 16 16 16 15 15 15 15 14
23 23 22 22 22 22 22 21 21 21 21 20 20 20 19 19 19 18 18 18 17 17 17 17 17 17 17 17 17 17 16 16 16 16 16 16 16 15 15 15 15 14 14
22 21 21 21 21 21 21 21 21 20 20 20 19 19 19 18 18 18 17 17 17 17 17 17 16 16 16 16 16 16 16 16 16 16 16 15 15 15 15 15 15 14 14
20 19 18 18 19 19 19 19 19 19 19 19 18 18 18 18 17 17 17 17 16 16 16 16 16 16 16 16 16 16 16 15 15 15 15 15 14 14 15 15 15 14 14
18 17 17 17 17 17 18 18 18 18 18 18 17 17 17 16 16 16 16 16 15 15 15 15 15 15 15 15 15 15 15 15 14 14 14 14 14 14 14 14 14 14 14
16 16 16 16 16 16 16 16 16 16 16 16 16 16 16 15 15 15 15 15 15 14 14 14 14 14 14 14 14 14 14 14 13 13 13 13 13 13 13 13 13 13 13
16 15 15 15 15 15 15 15 15 15 14 14 14 14 14 14 14 14 14 14 14 13 13 13 13 13 13 13 13 13 13 12 12 12 12 12 12 12 12 12 12 12 12
15 15 14 14 14 14 14 14 13 13 13 13 13 13 13 13 13 13 13 13 13 13 13 13 13 12 12 12 12 12 12 11 11 11 11 11 11 11 11 11 11 11 11
14 14 14 13 13 13 13 13 12 12 12 12 12 12 12 12 12 12 12 12 12 12 12 12 12 12 12 11 11 11 10 10 10 9 9 9 9 10 10 10 10 10 10
14 14 13 13 12 12 12 12 11 11 11 11 11 11 11 11 11 11 11 11 12 12 11 11 11 11 11 10 10 10 9 9 9 8 8 8 8 9 9 9 9 9 9
14 14 13 13 12 12 12 11 11 11 11 11 11 11 11 11 11 11 11 11 11 11 11 10 10 10 9 9 9 9 8 8 7 7 7 7 8 8 8 8 8 9 9
13 13 13 12 12 12 11 11 11 11 10 11 11 11 11 12 11 11 11 11 11 11 10 10 9 9 8 8 8 7 7 7 6 6 6 6 6 6 7 7 8 8 8
13 13 12 12 12 12 11 11 10 10 10 10 10 11 11 11 11 11 11 11 11 10 10 9 9 8 8 7 7 7 6 6 6 5 5 5 5 6 6 6 7 7 7

GEFSMW_850_meantemp_078.txt.gz
Temperature
19 18 18 18 18 18 18 18 18 18 18 18 18 18 18 18 17 17 17 17 17 16 16 16 16 16 16 16 16 16 16 16 17 17 17 17 17 17 17 17 17 17 17
18 18 18 18 18 18 18 18 18 18 18 18 18 18 18 17 17 17 17 17 16 16 16 16 16 16 16 16 16 16 16 16 16 17 17 17 17 17 17 17 17 16 16
18 18 18 17 18 18 18 18 18 18 18 18 18 17 17 17 17 17 17 17 16 16 16 16 16 16 16 15 15 16 16 16 16 16 17 17 17 17 17 17 16 16 16
18 18 18 18 18 18 18 18 18 17 18 18 18 18 17 17 17 17 17 17 16 16 16 16 16 15 15 15 15 15 16 16 16 16 16 16 17 17 16 16 16 16 16
18 18 18 18 18 18 18 18 17 17 17 18 18 18 18 17 17 17 17 17 16 16 16 16 16 16 15 15 15 15 16 16 16 16 16 16 16 16 16 16 16 16 16
18 18 18 18 18 18 18 17 17 17 17 17 17 17 17 17 17 17 17 17 16 16 16 16 16 16 16 16 15 15 15 16 15 16 16 16 16 16 16 16 16 16 16
18 18 18 18 18 18 18 18 18 17 17 17 17 17 17 17 17 17 17 17 17 17 16 16 16 16 16 16 16 16 16 16 16 16 16 16 16 16 16 16 16 16 16
19 19 18 18 18 18 18 18 18 18 17 18 17 17 17 17 17 17 17 17 17 17 17 16 16 16 16 16 16 16 16 16 16 16 16 16 15 15 16 16 16 16 16
19 19 19 19 18 18 18 18 18 18 18 18 17 17 17 17 17 17 17 17 17 17 17 17 17 17 17 17 16 16 16 16 16 16 16 16 15 15 15 15 15 15 15
19 19 19 19 19 19 19 18 18 18 18 18 18 18 18 18 17 17 17 17 17 17 17 17 17 17 17 17 17 17 17 17 16 16 16 16 16 15 15 15 15 15 15
20 20 20 20 19 19 19 19 19 18 18 18 18 18 18 18 18 17 17 17 17 17 17 17 17 17 17 17 17 17 17 17 16 16 16 16 16 15 15 15 15 15 15
21 21 20 20 20 19 19 19 19 19 19 18 18 18 18 18 18 17 17 17 17 17 17 17 17 17 17 17 17 17 17 17 17 16 16 16 16 16 15 15 15 15 14
21 21 21 20 20 20 19 19 19 19 19 19 18 18 18 18 18 18 17 17 17 17 17 17 17 17 17 17 17 17 17 17 16 16 16 16 16 16 15 15 15 15 15
20 20 20 20 20 20 20 20 20 19 19 19 18 18 18 18 18 18 17 17 17 17 17 17 17 16 16 16 16 16 16 16 16 16 16 16 16 16 15 15 15 15 15
19 19 20 20 20 20 20 20 20 19 19 18 18 18 18 18 18 17 17 17 17 17 17 16 16 16 16 16 16 16 16 15 15 15 15 15 15 15 15 15 15 14 14
18 18 18 19 19 19 19 19 18 18 18 18 18 18 17 17 17 17 17 17 16 16 16 16 16 16 15 15 15 15 15 15 15 15 15 15 14 14 14 14 14 14 13
17 17 17 17 18 18 18 18 17 17 17 17 17 16 16 16 16 16 16 16 16 15 15 15 15 14 14 14 14 14 14 14 14 14 14 14 14 13 13 13 13 13 13
16 16 16 16 16 16 16 16 16 16 16 16 15 15 15 15 15 15 15 15 15 14 14 14 14 14 13 13 13 13 13 13 13 13 12 12 12 12 12 12 12 12 12
15 15 15 15 15 15 15 15 15 15 15 14 14 14 14 14 14 14 14 13 13 13 13 13 13 13 12 12 12 12 12 12 12 12 12 12 11 11 11 11 11 11 12
15 14 14 14 14 14 14 14 14 14 13 13 13 13 13 13 13 13 13 13 12 12 12 12 12 12 12 11 12 12 11 11 11 11 11 10 10 10 10 10 10 10 10
14 14 14 14 13 13 14 13 13 12 12 12 12 12 12 12 12 12 12 12 12 11 11 11 11 11 11 11 11 10 10 10 10 10 9 9 9 9 9 9 9 9 9
13 14 13 13 13 13 13 13 12 11 11 12 12 11 11 11 11 11 11 11 11 11 11 11 10 10 10 10 10 9 9 9 8 8 8 8 8 8 8 8 8 8 7
13 13 13 12 12 12 12 12 11 11 11 11 11 11 11 11 11 11 11 11 11 11 10 10 10 10 9 9 9 8 8 8 8 7 7 7 7 7 7 7 6 6 6
13 13 13 12 12 12 11 11 11 11 11 11 11 11 11 11 11 11 11 10 10 10 10 10 9 9 8 8 8 7 7 7 7 6 6 6 6 6 6 5 5 5 5
13 12 12 12 11 11 11 11 11 11 11 11 10 10 10 10 10 10 10 10 10 9 9 9 8 8 8 7 6 6 6 6 5 5 5 5 5 5 5 5 5 5 5
12 12 12 12 11 11 11 11 11 10 10 10 10 10 10 10 10 9 9 9 9 8 8 8 7 7 6 6 5 5 5 5 4 4 4 4 4 4 4 4 4 4 4